SR5NLK-1 Weather Reports


Display with metric or nautical units.
time (UTC)temp
F
wind
direction
speed
MPH
gust
MPH
rain 1hr
in
rain 24hr
in
rain mn
in
humidity
%
barometer
mb
20260510114221 72 270 4.0 8.0 0.00 0.00 0.00 28 1001.0
20260510113720 72 315 3.0 8.0 0.00 0.00 0.00 29 1087.8
20260510113319 72 180 0.0 3.0 0.00 0.00 0.00 30 1001.0
20260510113220 72 270 1.0 3.0 0.00 0.00 0.00 29 1103.5
20260510112720 73 0 1.0 8.0 0.00 0.00 0.00 29 1075.2
20260510112220 73 270 2.0 8.0 0.00 0.00 0.00 28 997.9
20260510111720 73 180 1.0 7.0 0.00 0.00 0.00 30 1069.0
20260510111220 73 292 0.0 5.0 0.00 0.00 0.00 29 998.5
20260510110720 74 67 1.0 4.0 0.00 0.00 0.00 29 1078.4
20260510110220 74 0 1.0 2.0 0.00 0.00 0.00 30 1003.8
20260510110019 74 315 0.0 3.0 0.00 0.00 0.00 30 1007.3
20260510105720 73 225 0.0 4.0 0.00 0.00 0.00 30 1073.3
20260510105220 73 180 4.0 5.0 0.00 0.00 0.00 31 1039.7
20260510104720 72 112 3.0 6.0 0.00 0.00 0.00 32 1078.3
20260510104220 71 180 4.0 8.0 0.00 0.00 0.00 32 1056.8
20260510103720 71 270 3.0 5.0 0.00 0.00 0.00 33 969.4
20260510103220 70 202 4.0 13.0 0.00 0.00 0.00 33 1044.0
20260510102719 69 270 6.0 7.0 0.00 0.00 0.00 33 988.4
20260510102220 69 270 5.0 5.0 0.00 0.00 0.00 32 962.2
20260510101720 70 45 2.0 6.0 0.00 0.00 0.00 31 1045.9
20260510101228 72 22 4.0 8.0 0.00 0.00 0.00 31 10.4
20260510101220 72 22 4.0 8.0 0.00 0.00 0.00 31 1049.1
20260510100720 72 270 1.0 4.0 0.00 0.00 0.00 32 1046.0
20260510100220 72 0 0.0 5.0 0.00 0.00 0.00 32 1081.5
20260510095720 72 0 0.0 5.0 0.00 0.00 0.00 32 1033.4
20260510095419 72 270 2.0 5.0 0.00 0.00 0.00 33 997.9
20260510095220 71 157 2.0 3.0 0.00 0.00 0.00 33 1059.5
20260510094720 72 292 1.0 6.0 0.00 0.00 0.00 32 1042.8
20260510094221 72 157 2.0 9.0 0.00 0.00 0.00 33 1084.6
20260510093720 71 247 6.0 9.0 0.00 0.00 0.00 34 1039.7
20260510093220 71 135 5.0 7.0 0.00 0.00 0.00 33 1075.2
20260510092720 71 157 1.0 7.0 0.00 0.00 0.00 33 1081.5
20260510092220 71 45 4.0 8.0 0.00 0.00 0.00 32 1078.3
20260510092119 71 157 6.0 8.0 0.00 0.00 0.00 32 1100.3
20260510091721 71 247 2.0 7.0 0.00 0.00 0.00 33 1078.4
20260510091220 72 45 1.0 6.0 0.00 0.00 0.00 32 1081.5
20260510090720 72 90 2.0 4.0 0.00 0.00 0.00 33 1027.1
20260510090220 72 180 2.0 6.0 0.00 0.00 0.00 33 1050.0
20260510085720 71 157 2.0 6.0 0.00 0.00 0.00 33 1068.9
20260510085220 71 135 5.0 5.0 0.00 0.00 0.00 33 1049.1
20260510084820 71 202 4.0 6.0 0.00 0.00 0.00 33 1075.2
20260510084720 71 225 0.0 6.0 0.00 0.00 0.00 33 1068.9
20260510084220 70 270 6.0 6.0 0.00 0.00 0.00 34 1065.8
20260510083720 69 157 4.0 7.0 0.00 0.00 0.00 35 1084.7
20260510083221 69 112 6.0 7.0 0.00 0.00 0.00 34 1075.2
20260510082721 70 0 2.0 6.0 0.00 0.00 0.00 33 1075.2
20260510082220 71 22 1.0 6.0 0.00 0.00 0.00 32 1075.3
20260510081721 73 0 6.0 8.0 0.00 0.00 0.00 32 959.1
20260510081520 74 337 3.0 7.0 0.00 0.00 0.00 32 1087.8
20260510081229 74 67 4.0 4.0 0.00 0.00 0.00 32 1036.5
20260510081221 74 67 4.0 4.0 0.00 0.00 0.00 32 1036.5
20260510080721 74 45 1.0 5.0 0.00 0.00 0.00 32 1081.5
20260510080221 74 247 1.0 5.0 0.00 0.00 0.00 31 1106.6
20260510075721 75 337 2.0 8.0 0.00 0.00 0.00 30 1075.2
20260510075221 77 22 2.0 8.0 0.00 0.00 0.00 29 1081.5
20260510074721 79 22 1.0 6.0 0.00 0.00 0.00 30 1030.2
20260510074220 79 67 0.0 4.0 0.00 0.00 0.00 31 1084.6
20260510073721 79 247 2.0 5.0 0.00 0.00 0.00 30 1090.9
20260510073221 80 112 3.0 8.0 0.00 0.00 0.00 30 1065.8
20260510072721 80 90 1.0 6.0 0.00 0.00 0.00 30 1062.7
20260510072221 79 157 0.0 7.0 0.00 0.00 0.00 31 1059.6
20260510071721 78 90 1.0 6.0 0.00 0.00 0.00 31 1033.4
20260510071221 78 0 1.0 4.0 0.00 0.00 0.00 32 1081.5
20260510070920 77 90 2.0 9.0 0.00 0.00 0.00 32 1062.7
20260510070721 76 112 0.0 9.0 0.00 0.00 0.00 33 1084.7
20260510070221 75 135 2.0 9.0 0.00 0.00 0.00 33 1020.8
20260510065721 75 45 2.0 5.0 0.00 0.00 0.00 33 1072.1
20260510065221 75 45 4.0 5.0 0.00 0.00 0.00 34 1036.6
20260510064721 73 90 4.0 5.0 0.00 0.00 0.00 35 1027.1
20260510064221 73 0 1.0 6.0 0.00 0.00 0.00 34 1036.6
20260510063721 73 22 5.0 9.0 0.00 0.00 0.00 34 1030.3
20260510063620 73 337 0.0 9.0 0.00 0.00 0.00 34 1001.0
20260510063221 74 112 3.0 6.0 0.00 0.00 0.00 33 1072.1
20260510062721 75 22 5.0 6.0 0.00 0.00 0.00 34 1014.5
20260510062221 76 45 4.0 6.0 0.00 0.00 0.00 33 1072.1
20260510061721 77 45 3.0 7.0 0.00 0.00 0.00 34 1078.4
20260510061221 78 67 3.0 5.0 0.00 0.00 0.00 35 1075.2
20260510060721 77 67 0.0 4.0 0.00 0.00 0.00 36 1072.1
20260510060320 77 67 1.0 3.0 0.00 0.00 0.00 36 1036.5
20260510060221 77 45 2.0 3.0 0.00 0.00 0.00 37 1055.4
20260510055721 77 67 2.0 4.0 0.00 0.00 0.00 37 1027.1
20260510055221 77 22 2.0 3.0 0.00 0.00 0.00 37 1075.3
20260510054721 76 67 0.0 3.0 0.00 0.00 0.00 38 1087.7
20260510054221 76 45 2.0 4.0 0.00 0.00 0.00 38 997.8
20260510053721 76 45 1.0 3.0 0.00 0.00 0.00 39 1084.7
20260510053221 76 67 0.0 2.0 0.00 0.00 0.00 40 1062.7
20260510053020 75 45 1.0 2.0 0.00 0.00 0.00 40 1078.4
20260510052721 75 67 2.0 3.0 0.00 0.00 0.00 41 1075.2
20260510052221 75 67 2.0 3.0 0.00 0.00 0.00 42 1075.2
20260510051721 74 180 0.0 2.0 0.00 0.00 0.00 43 1081.5
20260510051221 73 112 2.0 3.0 0.00 0.00 0.00 45 1090.9
20260510050721 72 135 0.0 3.0 0.00 0.00 0.00 47 1090.9
20260510050221 69 135 0.0 2.0 0.00 0.00 0.00 49 1072.1
20260510045720 67 135 0.0 2.0 0.00 0.00 0.00 53 1062.7
20260510045221 66 67 0.0 1.0 0.00 0.00 0.00 56 1075.2
20260510044721 63 45 1.0 2.0 0.00 0.00 0.00 61 1078.4
20260510044221 59 67 0.0 2.0 0.00 0.00 0.00 66 1072.1
20260510043721 55 67 1.0 2.0 0.00 0.00 0.00 70 1053.2
20260510043221 53 135 0.0 2.0 0.00 0.00 0.00 68 1084.6
20260510042721 55 112 0.0 1.0 0.00 0.00 0.00 68 1027.1
20260510042420 56 45 0.0 0.0 0.00 0.00 0.00 69 1053.2
20260510042221 57 112 0.0 0.0 0.00 0.00 0.00 71 1059.5
20260510041721 56 45 0.0 0.0 0.00 0.00 0.00 79 1072.1
20260510041221 52 45 0.0 1.0 0.00 0.00 0.00 85 1059.5
20260510040721 50 67 0.0 1.0 0.00 0.00 0.00 88 1075.2
20260510040221 47 45 1.0 1.0 0.00 0.00 0.00 89 1030.3
20260510035721 43 45 0.0 1.0 0.00 0.00 0.00 87 1062.6
20260510035221 42 337 0.0 0.0 0.00 0.00 0.00 85 1065.8
20260510035120 41 315 0.0 0.0 0.00 0.00 0.00 85 1069.0
20260510034721 41 202 0.0 0.0 0.00 0.00 0.00 84 1065.8
20260510034221 41 157 0.0 0.0 0.00 0.00 0.00 84 1059.8
20260510033721 40 135 0.0 0.0 0.00 0.00 0.00 83 1062.7
20260510033221 39 135 0.0 0.0 0.00 0.00 0.00 83 1078.3
20260510032721 39 157 0.0 0.0 0.00 0.00 0.00 83 1075.2
20260510032221 39 112 0.0 0.0 0.00 0.00 0.00 83 1072.2
20260510031820 39 90 0.0 0.0 0.00 0.00 0.00 83 1078.3
20260510031721 39 90 0.0 0.0 0.00 0.00 0.00 82 1024.0
20260510031221 39 67 0.0 0.0 0.00 0.00 0.00 82 1065.8
20260510030721 39 0 0.0 0.0 0.00 0.00 0.00 82 1087.8
20260510030221 39 337 0.0 0.0 0.00 0.00 0.00 82 1075.2
20260510025721 39 270 0.0 0.0 0.00 0.00 0.00 82 1065.8
20260510025221 39 112 0.0 0.0 0.00 0.00 0.00 82 1059.5
20260510024721 39 157 0.0 0.0 0.00 0.00 0.00 82 1042.8
20260510024520 39 67 0.0 0.0 0.00 0.00 0.00 82 1042.8
20260510024221 39 112 0.0 0.0 0.00 0.00 0.00 82 1056.4
20260510023721 39 112 0.0 0.0 0.00 0.00 0.00 82 1072.1
20260510023221 39 112 0.0 0.0 0.00 0.00 0.00 82 1056.4
20260510022721 40 112 0.0 0.0 0.00 0.00 0.00 82 1039.7
20260510022221 40 112 0.0 0.0 0.00 0.00 0.00 82 1049.1
20260510021722 40 112 0.0 0.0 0.00 0.00 0.00 82 1050.0
20260510021220 40 112 0.0 0.0 0.00 0.00 0.00 82 1065.8
20260510020721 40 67 0.0 0.0 0.00 0.00 0.00 82 1059.5
20260510020221 40 135 0.0 0.0 0.00 0.00 0.00 82 1087.8
20260510015721 40 135 0.0 0.0 0.00 0.00 0.00 82 1072.1
20260510015221 40 67 0.0 0.0 0.00 0.00 0.00 82 1065.8
20260510014721 40 67 0.0 0.0 0.00 0.00 0.00 82 1069.0
20260510014221 41 112 0.0 0.0 0.00 0.00 0.00 82 1072.1
20260510013920 41 112 0.0 0.0 0.00 0.00 0.00 82 1059.5
20260510013721 41 90 0.0 0.0 0.00 0.00 0.00 82 1075.2
20260510013221 41 90 0.0 0.0 0.00 0.00 0.00 82 1078.4
20260510012722 41 135 0.0 0.0 0.00 0.00 0.00 82 1078.4
20260510012221 40 112 0.0 0.0 0.00 0.00 0.00 81 1100.3
20260510011721 40 112 0.0 0.0 0.00 0.00 0.00 81 1084.7
20260510011221 40 157 0.0 0.0 0.00 0.00 0.00 81 1020.8
20260510010721 40 157 0.0 0.0 0.00 0.00 0.00 81 1065.8
20260510010620 40 157 0.0 0.0 0.00 0.00 0.00 81 1075.2
20260510010221 40 135 0.0 0.0 0.00 0.00 0.00 81 1007.3
20260510005721 40 247 0.0 0.0 0.00 0.00 0.00 80 1081.5
20260510005221 40 180 0.0 0.0 0.00 0.00 0.00 80 1081.5
20260510004721 40 180 0.0 0.0 0.00 0.00 0.00 80 1042.9
20260510004221 40 157 0.0 0.0 0.00 0.00 0.00 80 1075.2
20260510003721 40 157 0.0 0.0 0.00 0.00 0.00 80 1081.5
20260510003320 41 225 0.0 0.0 0.00 0.00 0.00 80 1033.4
20260510003221 41 202 0.0 0.0 0.00 0.00 0.00 80 1078.4
20260510002721 41 202 0.0 0.0 0.00 0.00 0.00 80 1097.2
20260510002221 41 180 0.0 0.0 0.00 0.00 0.00 80 1058.5
20260510001730 41 157 50.0 0.0 0.00 0.00 0.00 80 994.7
20260510001722 41 157 0.0 0.0 0.00 0.00 0.00 80 994.7
20260510001221 41 157 0.0 0.0 0.00 0.00 0.00 80 1033.4
20260510000722 41 180 0.0 0.0 0.00 0.00 0.00 79 1090.9
20260510000221 41 180 0.0 0.0 0.00 0.00 0.00 79 1056.2
20260510000021 41 180 0.0 0.0 0.00 0.00 0.00 79 1084.7
20260509235721 41 180 0.0 0.0 0.00 0.00 0.00 79 1049.1
20260509235221 41 202 0.0 0.0 0.00 0.00 0.00 79 1027.1
20260509234721 41 202 0.0 0.0 0.00 0.00 0.00 79 1036.5
20260509234221 41 180 0.0 0.0 0.00 0.00 0.00 79 1078.4
20260509233721 42 180 0.0 0.0 0.00 0.00 0.00 79 1072.1
20260509233221 42 180 0.0 0.0 0.00 0.00 0.00 78 1039.7
20260509232721 42 157 0.0 0.0 0.00 0.00 0.00 78 982.2
20260509232221 42 135 0.0 0.0 0.00 0.00 0.00 78 1059.3
20260509231722 42 135 0.0 0.0 0.00 0.00 0.00 78 1084.7
20260509231221 42 135 0.0 0.0 0.00 0.00 0.00 78 1078.4
20260509230722 42 135 0.0 0.0 0.00 0.00 0.00 78 1049.1
20260509230222 42 135 0.0 0.0 0.00 0.00 0.00 78 1081.5
20260509225722 43 112 0.0 0.0 0.00 0.00 0.00 78 1010.4
20260509225421 43 135 0.0 0.0 0.00 0.00 0.00 77 1039.7
20260509225222 43 135 0.0 0.0 0.00 0.00 0.00 77 1062.6
20260509224722 43 135 0.0 0.0 0.00 0.00 0.00 77 1078.4
20260509224222 43 135 0.0 0.0 0.00 0.00 0.00 77 1075.2
20260509223722 43 112 0.0 0.0 0.00 0.00 0.00 77 1062.7
20260509223222 43 135 0.0 0.0 0.00 0.00 0.00 77 1065.8
20260509222731 43 112 0.0 0.0 0.00 0.00 0.00 77 997.9
20260509222722 43 112 0.0 0.0 0.00 0.00 0.00 77 997.9
20260509222222 43 135 0.0 0.0 0.00 0.00 0.00 77 1081.5
20260509222121 44 135 0.0 0.0 0.00 0.00 0.00 77 1078.4
20260509221722 44 157 0.0 0.0 0.00 0.00 0.00 77 1084.7
20260509221222 44 135 0.0 0.0 0.00 0.00 0.00 77 1027.1
20260509220722 44 112 0.0 0.0 0.00 0.00 0.00 77 1069.0
20260509220222 44 67 0.0 0.0 0.00 0.00 0.00 77 1049.1
20260509215722 44 67 0.0 0.0 0.00 0.00 0.00 77 1047.0
20260509215222 44 135 0.0 0.0 0.00 0.00 0.00 77 959.2
20260509214821 44 112 0.0 0.0 0.00 0.00 0.00 77 1016.6
20260509214722 44 112 0.0 0.0 0.00 0.00 0.00 77 920.4
20260509214222 44 90 0.0 0.0 0.00 0.00 0.00 77 1039.7
20260509213722 44 112 0.0 0.0 0.00 0.00 0.00 76 1097.2
20260509213222 44 45 0.0 0.0 0.00 0.00 0.00 76 988.4
20260509212722 44 112 0.0 0.0 0.00 0.00 0.00 76 1097.2
20260509212222 44 112 0.0 0.0 0.00 0.00 0.00 76 1081.5
20260509211722 44 112 0.0 0.0 0.00 0.00 0.00 75 1019.6
20260509211521 44 112 0.0 0.0 0.00 0.00 0.00 75 1058.5
20260509211222 44 90 0.0 0.0 0.00 0.00 0.00 75 1049.1
20260509210722 44 90 0.0 0.0 0.00 0.00 0.00 75 1045.9
20260509210222 44 112 0.0 0.0 0.00 0.00 0.00 74 1052.2
20260509205722 44 112 0.0 0.0 0.00 0.00 0.00 74 971.0
20260509205222 44 67 0.0 0.0 0.00 0.00 0.00 74 1075.3
20260509204722 44 112 0.0 1.0 0.00 0.00 0.00 73 1081.5
20260509204221 45 135 0.0 1.0 0.00 0.00 0.00 73 997.9
20260509203722 45 112 0.0 2.0 0.00 0.00 0.00 73 1052.2
20260509203222 45 135 0.0 0.0 0.00 0.00 0.00 73 1037.5
20260509202722 45 90 0.0 0.0 0.00 0.00 0.00 72 1042.8
20260509202222 46 112 1.0 1.0 0.00 0.00 0.00 72 1055.4
20260509201722 46 90 0.0 0.0 0.00 0.00 0.00 71 955.4
20260509201222 46 90 0.0 0.0 0.00 0.00 0.00 71 1042.8
20260509200921 46 90 0.0 1.0 0.00 0.00 0.00 71 1082.2
20260509200722 46 90 0.0 1.0 0.00 0.00 0.00 71 1052.2
20260509200222 46 45 0.0 1.0 0.00 0.00 0.00 70 1013.5
20260509195722 47 112 0.0 0.0 0.00 0.00 0.00 69 1090.9
20260509195222 47 112 0.0 0.0 0.00 0.00 0.00 70 1024.3
20260509194722 47 112 0.0 1.0 0.00 0.00 0.00 69 997.5
20260509194222 48 90 0.0 2.0 0.00 0.00 0.00 69 1087.8
20260509193722 48 112 1.0 2.0 0.00 0.00 0.00 69 1087.8
20260509193621 48 67 2.0 2.0 0.00 0.00 0.00 69 1027.0
20260509193222 48 90 0.0 3.0 0.00 0.00 0.00 68 1004.1
20260509192722 48 112 0.0 2.0 0.00 0.00 0.00 68 1057.9
20260509192222 48 112 1.0 2.0 0.00 0.00 0.00 68 1049.1
20260509191722 49 112 0.0 3.0 0.00 0.00 0.00 68 937.6
20260509191222 49 135 2.0 3.0 0.00 0.00 0.00 67 942.2
20260509190722 49 67 0.0 2.0 0.00 0.00 0.00 66 1081.5
20260509190321 49 112 1.0 3.0 0.00 0.00 0.00 66 1094.1
20260509190222 49 67 1.0 3.0 0.00 0.00 0.00 66 1042.8
20260509185723 50 112 1.0 2.0 0.00 0.00 0.00 65 964.9
20260509185222 50 112 2.0 2.0 0.00 0.00 0.00 65 1083.7
20260509184722 50 67 0.0 2.0 0.00 0.00 0.00 64 1053.5
20260509184222 51 135 2.0 2.0 0.00 0.00 0.00 63 1039.1
20260509183723 51 112 0.0 2.0 0.00 0.00 0.00 62 1046.0
20260509183222 52 112 0.0 2.0 0.00 0.00 0.00 62 1019.7
20260509183021 52 112 0.0 2.0 0.00 0.00 0.00 62 1049.0
20260509182722 52 112 0.0 2.0 0.00 0.00 0.00 61 923.5
20260509182222 53 67 2.0 2.0 0.00 0.00 0.00 60 1042.8
20260509181722 53 67 2.0 3.0 0.00 0.00 0.00 60 972.7
20260509181222 54 112 2.0 4.0 0.00 0.00 0.00 59 1087.8
20260509180722 54 67 2.0 3.0 0.00 0.00 0.00 58 946.6
20260509180222 55 90 2.0 4.0 0.00 0.00 0.00 57 1010.3
20260509175721 55 67 3.0 5.0 0.00 0.00 0.00 56 1009.9
20260509175222 55 90 1.0 6.0 0.00 0.00 0.00 56 1032.9
20260509174722 55 67 4.0 8.0 0.00 0.00 0.00 56 1021.8
20260509174231 56 22 8.0 8.0 0.00 0.00 0.00 55 1012.8
20260509174223 56 22 8.0 8.0 0.00 0.00 0.00 55 1012.8
20260509173722 56 45 4.0 6.0 0.00 0.00 0.00 55 961.2
20260509173222 57 22 5.0 6.0 0.00 0.00 0.00 55 932.6
20260509172722 57 22 5.0 7.0 0.00 0.00 0.00 55 1035.6
20260509172421 57 67 5.0 9.0 0.00 0.00 0.00 55 1017.8
20260509172222 57 90 4.0 11.0 0.00 0.00 0.00 55 1010.4
20260509171722 57 90 7.0 11.0 0.00 0.00 0.00 55 979.8
20260509171222 58 67 9.0 10.0 0.00 0.00 0.00 55 1045.8
20260509170722 58 45 5.0 11.0 0.00 0.00 0.00 55 959.0
20260509170222 58 45 9.0 12.0 0.00 0.00 0.00 55 1009.3
20260509165722 58 22 6.0 10.0 0.00 0.00 0.00 55 1041.3
20260509165222 58 22 7.0 11.0 0.00 0.00 0.00 55 1061.6
20260509165121 58 22 8.0 11.0 0.00 0.00 0.00 54 997.8
20260509164722 58 22 4.0 10.0 0.00 0.00 0.00 54 1007.3
20260509164222 57 22 4.0 9.0 0.00 0.00 0.00 54 1033.4
20260509163722 58 22 2.0 9.0 0.00 0.00 0.00 54 1084.7
20260509163222 58 0 8.0 8.0 0.00 0.00 0.00 54 1013.5
20260509162722 58 337 3.0 8.0 0.00 0.00 0.00 54 1039.7
20260509162222 58 22 5.0 7.0 0.00 0.00 0.00 54 1090.9
20260509161821 58 22 5.0 9.0 0.00 0.00 0.00 53 997.8
20260509161722 58 0 2.0 9.0 0.00 0.00 0.00 53 1055.4
20260509161222 58 45 4.0 8.0 0.00 0.00 0.00 53 1036.5
20260509160722 59 0 4.0 12.0 0.00 0.00 0.00 52 914.2
20260509160222 59 22 10.0 10.0 0.00 0.00 0.00 52 965.4
20260509155722 58 0 5.0 12.0 0.00 0.00 0.00 51 1039.7
20260509155223 58 0 3.0 11.0 0.00 0.00 0.00 51 1087.8
20260509154722 58 0 6.0 10.0 0.00 0.00 0.00 51 1033.4
20260509154521 58 337 6.0 10.0 0.00 0.00 0.00 51 1052.2
20260509154222 58 22 3.0 9.0 0.00 0.00 0.00 50 1049.1
20260509153722 58 337 3.0 14.0 0.00 0.00 0.00 50 1007.3
20260509153223 59 0 8.0 11.0 0.00 0.00 0.00 50 997.9
20260509152722 59 337 4.0 13.0 0.00 0.00 0.00 49 1036.5
20260509152222 60 337 10.0 15.0 0.00 0.00 0.00 49 994.7
20260509151722 60 22 12.0 12.0 0.00 0.00 0.00 49 1072.1
20260509151221 60 337 5.0 12.0 0.00 0.00 0.00 48 1069.0
20260509150722 60 315 8.0 15.0 0.00 0.00 0.00 49 1059.5
20260509150222 60 315 15.0 17.0 0.00 0.00 0.00 49 952.9
20260509145722 60 45 5.0 13.0 0.00 0.00 0.00 51 1078.4
20260509145222 60 270 5.0 13.0 0.00 0.00 0.00 52 1075.2
20260509144722 59 270 1.0 11.0 0.00 0.00 0.00 55 1075.3
20260509144222 58 315 10.0 10.0 0.00 0.00 0.00 57 1087.8
20260509143921 58 315 4.0 8.0 0.00 0.00 0.00 57 1084.7
20260509143722 58 0 2.0 8.0 0.00 0.00 0.00 57 1039.7
20260509143222 57 22 4.0 6.0 0.00 0.00 0.00 57 1042.8
20260509142722 57 22 2.0 9.0 0.00 0.00 0.00 56 1078.4
20260509142222 57 22 4.0 10.0 0.00 0.00 0.00 56 1033.4
20260509141732 58 67 3.0 8.0 0.00 0.00 0.00 56 1042.1
20260509141722 58 67 3.0 8.0 0.00 0.00 0.00 56 1042.8
20260509141222 58 0 2.0 7.0 0.00 0.00 0.00 55 1046.0
20260509140722 58 0 6.0 11.0 0.00 0.00 0.00 54 1027.1
20260509140622 58 337 7.0 11.0 0.00 0.00 0.00 54 1065.8
20260509140222 58 292 6.0 9.0 0.00 0.00 0.00 54 1068.9
20260509135722 58 0 2.0 6.0 0.00 0.00 0.00 54 1069.0
20260509135222 58 337 2.0 9.0 0.00 0.00 0.00 53 1059.5
20260509134722 59 337 8.0 12.0 0.00 0.00 0.00 52 1062.7
20260509134223 60 315 9.0 11.0 0.00 0.00 0.00 51 1021.9
20260509133723 60 270 9.0 12.0 0.00 0.00 0.00 50 1028.6
20260509133322 61 292 7.0 12.0 0.00 0.00 0.00 51 1032.3
20260509133223 61 270 8.0 10.0 0.00 0.00 0.00 51 1016.6
20260509132723 61 270 10.0 10.0 0.00 0.00 0.00 50 1016.9
20260509132223 61 0 5.0 7.0 0.00 0.00 0.00 50 1010.8
20260509131723 61 270 7.0 11.0 0.00 0.00 0.00 50 1018.8
20260509131223 61 292 6.0 9.0 0.00 0.00 0.00 50 1030.8
20260509130723 61 337 7.0 13.0 0.00 0.00 0.00 50 1032.8
20260509130223 61 292 1.0 9.0 0.00 0.00 0.00 50 1038.3
20260509130022 62 270 3.0 9.0 0.00 0.00 0.00 49 1047.4
20260509125723 62 292 3.0 10.0 0.00 0.00 0.00 49 1028.0
20260509125223 62 315 1.0 10.0 0.00 0.00 0.00 50 1044.2
20260509124723 62 337 3.0 8.0 0.00 0.00 0.00 51 1029.6
20260509124223 61 270 4.0 10.0 0.00 0.00 0.00 50 1034.8
20260509123723 62 315 6.0 11.0 0.00 0.00 0.00 50 1069.7
20260509123223 62 270 3.0 4.0 0.00 0.00 0.00 53 1062.6
20260509122722 61 292 0.0 3.0 0.00 0.00 0.00 53 1065.8
20260509122223 61 337 2.0 3.0 0.00 0.00 0.00 53 1056.3
20260509121723 60 0 2.0 6.0 0.00 0.00 0.00 53 1048.9
20260509121223 60 0 3.0 6.0 0.00 0.00 0.00 53 1022.2
20260509120723 60 337 3.0 8.0 0.00 0.00 0.00 52 1043.6
20260509120223 61 0 3.0 6.0 0.00 0.00 0.00 52 1027.2
20260509115723 60 315 0.0 9.0 0.00 0.00 0.00 52 1031.3
20260509115422 60 22 3.0 8.0 0.00 0.00 0.00 52 1013.3
20260509115223 60 22 6.0 8.0 0.00 0.00 0.00 52 1052.3
20260509114723 60 337 0.0 10.0 0.00 0.00 0.00 52 1013.3